Location: Buffign�court
(47.8126°N, 6.0176°E)
Time: 03:00:20
(UTC+00:00)

Cosmos 1943 Rocket - Pass Details

Date: 16 June 2021
Orbit: 813 x 843 km, 71.0° (Epoch: 04 August)

Event Time Altitude Azimuth Distance (km) Brightness Sun altitude
Rises 22:51:11 0° 337° (NNW) 3,348 6.9 -18.1°
Reaches altitude 10° 22:53:59 10° 349° (N) 2,412 5.9 -18.2°
Maximum altitude 22:58:40 27° 48° (NE) 1,514 3.9 -18.3°
Drops below altitude 10° 23:03:19 10° 105° (ESE) 2,406 4.3 -18.4°
Enters shadow 23:04:11 - 110° (ESE) 2,685 4.5 -18.4°
